TimeEDT,TemperatureF,Dew PointF,Humidity,Sea Level PressureIn,VisibilityMPH,Wind Direction,Wind SpeedMPH,Gust SpeedMPH,PrecipitationIn,Events,Conditions,WindDirDegrees,DateUTC
12:54 AM,64.9,57.9,78,29.90,10.0,Calm,Calm,-,N/A,,Overcast,0,2013-04-10 04:54:00
1:54 AM,64.9,59.0,81,29.90,10.0,SE,4.6,-,0.00,,Overcast,140,2013-04-10 05:54:00
2:54 AM,64.0,59.0,84,29.88,10.0,South,5.8,-,0.00,,Overcast,170,2013-04-10 06:54:00
3:54 AM,57.9,53.1,84,29.87,6.0,NE,10.4,-,N/A,,Haze,50,2013-04-10 07:54:00
4:54 AM,53.1,50.0,89,29.87,4.0,ENE,12.7,-,N/A,,Overcast,70,2013-04-10 08:54:00
5:54 AM,52.0,50.0,93,29.87,3.0,East,8.1,-,0.01,Rain,Light Rain,80,2013-04-10 09:54:00
6:54 AM,52.0,50.0,93,29.86,3.0,ENE,8.1,-,0.00,,Overcast,70,2013-04-10 10:54:00
7:54 AM,52.0,50.0,93,29.85,3.0,East,6.9,-,N/A,,Mostly Cloudy,80,2013-04-10 11:54:00
8:54 AM,52.0,51.1,97,29.86,3.0,East,5.8,-,0.00,,Overcast,90,2013-04-10 12:54:00
9:46 AM,55.4,51.8,88,29.86,4.0,ENE,5.8,-,N/A,,Overcast,60,2013-04-10 13:46:00
9:54 AM,55.0,52.0,89,29.87,4.0,NNE,4.6,-,N/A,Thunderstorm,Overcast,30,2013-04-10 13:54:00
10:02 AM,53.6,51.8,94,29.86,1.8,ENE,6.9,-,0.05,Rain-Thunderstorm,Heavy Thunderstorms and Rain,70,2013-04-10 14:02:00
10:10 AM,53.6,51.8,94,29.87,2.5,NNE,9.2,-,0.10,Rain-Thunderstorm,Thunderstorms and Rain,30,2013-04-10 14:10:00
10:14 AM,53.6,51.8,94,29.86,3.0,ENE,6.9,-,0.10,Rain-Thunderstorm,Light Thunderstorms and Rain,60,2013-04-10 14:14:00
10:27 AM,53.6,51.8,94,29.86,3.0,NE,9.2,-,0.10,,Overcast,50,2013-04-10 14:27:00
10:38 AM,53.6,51.8,94,29.87,3.0,ENE,8.1,-,0.10,,Overcast,60,2013-04-10 14:38:00
10:54 AM,54.0,52.0,93,29.86,3.0,ENE,10.4,-,0.10,,Mostly Cloudy,60,2013-04-10 14:54:00
11:10 AM,55.4,53.6,94,29.86,3.0,ENE,8.1,-,N/A,,Mostly Cloudy,60,2013-04-10 15:10:00
11:54 AM,60.1,57.0,90,29.84,3.0,East,6.9,-,N/A,,Mostly Cloudy,80,2013-04-10 15:54:00
12:14 PM,62.6,57.2,82,29.85,4.0,ENE,5.8,-,N/A,,Overcast,70,2013-04-10 16:14:00
12:54 PM,62.1,57.0,84,29.84,5.0,NE,6.9,-,0.00,Rain,Light Rain,50,2013-04-10 16:54:00
1:26 PM,57.2,55.4,94,29.84,4.0,NNE,8.1,-,0.03,Rain-Thunderstorm,Light Thunderstorms and Rain,20,2013-04-10 17:26:00
1:54 PM,57.9,55.9,93,29.84,5.0,ENE,9.2,-,0.03,,Overcast,60,2013-04-10 17:54:00
2:11 PM,57.2,55.4,94,29.85,3.0,NE,9.2,-,N/A,Thunderstorm,Overcast,40,2013-04-10 18:11:00
2:25 PM,55.4,53.6,94,29.81,2.5,NE,12.7,-,0.00,Rain-Thunderstorm,Light Thunderstorms and Rain,40,2013-04-10 18:25:00
2:40 PM,55.4,53.6,94,29.87,2.5,NNE,9.2,-,0.01,Rain,Light Rain,30,2013-04-10 18:40:00
2:47 PM,53.6,53.6,100,29.86,2.5,East,5.8,-,0.01,,Overcast,80,2013-04-10 18:47:00
2:54 PM,54.0,53.1,97,29.86,2.5,ESE,5.8,-,0.01,,Overcast,110,2013-04-10 18:54:00
3:11 PM,53.6,53.6,100,29.84,2.5,East,6.9,-,N/A,,Overcast,90,2013-04-10 19:11:00
3:29 PM,53.6,53.6,100,29.84,2.5,ESE,4.6,-,N/A,,Overcast,110,2013-04-10 19:29:00
3:54 PM,55.9,54.0,93,29.83,2.5,ENE,4.6,-,N/A,,Mostly Cloudy,70,2013-04-10 19:54:00
3:57 PM,57.2,53.6,88,29.83,3.0,East,4.6,-,N/A,,Mostly Cloudy,80,2013-04-10 19:57:00
4:09 PM,57.2,55.4,94,29.83,2.5,ENE,4.6,-,0.00,Rain,Light Rain,70,2013-04-10 20:09:00
4:30 PM,55.4,53.6,94,29.84,1.0,North,9.2,-,0.01,Rain,Heavy Rain,10,2013-04-10 20:30:00
4:33 PM,55.4,53.6,94,29.83,1.0,North,9.2,-,0.14,Rain-Thunderstorm,Heavy Thunderstorms and Rain,10,2013-04-10 20:33:00
4:39 PM,55.4,53.6,94,29.84,2.0,North,4.6,-,0.18,Rain-Thunderstorm,Light Thunderstorms and Rain,360,2013-04-10 20:39:00
4:49 PM,55.4,53.6,94,29.86,1.8,NNW,15.0,-,0.18,Rain-Thunderstorm,Thunderstorms and Rain,340,2013-04-10 20:49:00
4:50 PM,55.0,53.1,93,29.86,1.8,NNW,13.8,17.3,0.19,Rain-Thunderstorm,Thunderstorms and Rain,340,2013-04-10 20:50:00
4:58 PM,55.4,53.6,94,29.90,1.2,Variable,6.9,-,0.11,Rain-Thunderstorm,Heavy Thunderstorms and Rain,0,2013-04-10 20:58:00
5:04 PM,55.4,53.6,94,29.89,1.0,NNW,9.2,-,0.17,Rain-Thunderstorm,Heavy Thunderstorms and Rain,340,2013-04-10 21:04:00
5:17 PM,53.6,51.8,94,29.87,2.0,North,15.0,-,0.25,Rain-Thunderstorm,Thunderstorms and Rain,10,2013-04-10 21:17:00
5:23 PM,51.8,51.8,100,29.87,3.0,NNE,11.5,-,0.25,Rain-Thunderstorm,Light Thunderstorms and Rain,20,2013-04-10 21:23:00
5:49 PM,50.0,48.2,94,29.83,6.0,East,15.0,-,0.28,Rain,Light Rain,80,2013-04-10 21:49:00
5:54 PM,50.0,48.9,96,29.84,6.0,ENE,13.8,-,0.29,Rain,Light Rain,60,2013-04-10 21:54:00
6:16 PM,48.2,48.2,100,29.84,9.0,ENE,12.7,-,0.00,Rain,Light Rain,70,2013-04-10 22:16:00
6:54 PM,48.9,48.0,97,29.87,8.0,NNE,11.5,-,0.00,,Overcast,30,2013-04-10 22:54:00
7:54 PM,48.0,46.9,96,29.91,8.0,ENE,8.1,-,0.00,Rain,Light Rain,60,2013-04-10 23:54:00
8:13 PM,48.2,46.4,93,29.90,3.0,NE,9.2,-,0.03,Rain-Thunderstorm,Thunderstorms and Rain,50,2013-04-11 00:13:00
8:54 PM,46.9,46.0,97,29.90,7.0,NE,11.5,-,0.06,Rain-Thunderstorm,Light Thunderstorms and Rain,50,2013-04-11 00:54:00
9:16 PM,46.4,44.6,93,29.87,8.0,ENE,17.3,-,0.01,,Overcast,60,2013-04-11 01:16:00
9:25 PM,46.4,44.6,93,29.84,3.0,ENE,16.1,-,0.01,Rain,Rain,60,2013-04-11 01:25:00
9:54 PM,46.0,45.0,96,29.81,3.0,East,23.0,32.2,0.06,Rain,Rain,90,2013-04-11 01:54:00
10:54 PM,46.9,45.0,93,29.87,4.0,East,12.7,-,0.07,Rain,Rain,80,2013-04-11 02:54:00
11:54 PM,46.0,44.1,93,29.83,5.0,East,16.1,-,0.02,,Overcast,90,2013-04-11 03:54:00